YO3IQI-2 Weather Reports


Display with metric or nautical units.
time (UTC)temp
F
wind
direction
speed
MPH
gust
MPH
rain 1hr
in
rain 24hr
in
rain mn
in
humidity
%
barometer
mb
20181113042015 50 0 0.0 0.0 0.00 0.00 0.00 89 1030.6
20181113041011 50 0 0.0 0.0 0.00 0.00 0.00 89 1030.6
20181113040008 50 0 0.0 0.0 0.00 0.00 0.00 90 1030.6
20181113035006 50 0 0.0 0.0 0.00 0.00 0.00 90 1030.6
20181113034003 50 0 0.0 0.0 0.00 0.00 0.00 90 1030.5
20181113033000 50 0 0.0 0.0 0.00 0.00 0.00 90 1030.2
20181113031957 51 0 0.0 0.0 0.00 0.00 0.00 91 1030.5
20181113030954 51 0 0.0 0.0 0.00 0.00 0.00 90 1030.5
20181113025952 51 0 0.0 0.0 0.00 0.00 0.00 92 1030.4
20181113024948 51 0 0.0 0.0 0.00 0.00 0.00 84 1030.1
20181113023945 51 0 0.0 0.0 0.00 0.00 0.00 91 1030.1
20181113022942 51 0 0.0 0.0 0.00 0.00 0.00 91 1030.1
20181113021939 51 0 0.0 0.0 0.00 0.00 0.00 91 1030.1
20181113020937 51 0 0.0 0.0 0.00 0.00 0.00 91 1030.1
20181113015934 51 0 0.0 0.0 0.00 0.00 0.00 91 1030.1
20181113014931 51 0 0.0 0.0 0.00 0.00 0.00 91 1030.1
20181113013928 51 0 0.0 0.0 0.00 0.00 0.00 92 1030.1
20181113012924 51 0 0.0 0.0 0.00 0.00 0.00 92 1030.1
20181113011922 51 0 0.0 0.0 0.00 0.00 0.00 92 1030.1
20181113010919 51 0 0.0 0.0 0.00 0.00 0.00 92 1030.1
20181113005916 51 0 0.0 0.0 0.00 0.00 0.00 92 1030.1
20181113004913 51 0 0.0 0.0 0.00 0.00 0.00 92 1030.1
20181113003910 51 0 0.0 0.0 0.00 0.00 0.00 92 1030.1
20181113002908 51 0 0.0 0.0 0.00 0.00 0.00 92 1030.1
20181113001905 51 0 0.0 0.0 0.00 0.00 0.00 92 1030.1
20181113000901 51 0 0.0 0.0 0.00 0.00 0.00 93 1030.1
20181112235858 51 0 0.0 0.0 0.00 0.00 0.00 93 1030.1
20181112234855 51 0 0.0 0.0 0.00 0.00 0.00 93 1030.1
20181112233853 51 0 0.0 0.0 0.00 0.00 0.00 94 1029.9
20181112232850 51 0 0.0 0.0 0.00 0.00 0.00 94 1029.7
20181112231847 51 0 0.0 0.0 0.00 0.00 0.00 86 1029.7
20181112230844 51 0 0.0 0.0 0.00 0.00 0.00 94 1029.7
20181112225841 51 0 0.0 0.0 0.00 0.00 0.00 94 1029.7
20181112224838 51 0 0.0 0.0 0.00 0.00 0.00 94 1029.7
20181112223835 51 0 0.0 0.0 0.00 0.00 0.00 95 1029.7
20181112222832 51 0 0.0 0.0 0.00 0.00 0.00 95 1029.7
20181112221829 51 0 0.0 0.0 0.00 0.00 0.00 95 1029.7
20181112220826 51 0 0.0 0.0 0.00 0.00 0.00 95 1029.7
20181112215824 51 0 0.0 0.0 0.00 0.00 0.00 95 1029.7
20181112214821 51 0 0.0 0.0 0.00 0.00 0.00 95 1029.7
20181112213818 51 0 0.0 0.0 0.00 0.00 0.00 95 1029.7
20181112212814 50 0 0.0 0.0 0.00 0.00 0.00 95 1029.7
20181112210809 50 0 0.0 0.0 0.00 0.00 0.00 95 1029.7
20181112205806 50 0 0.0 0.0 0.00 0.00 0.00 95 1029.7
20181112204803 50 0 0.0 0.0 0.00 0.00 0.00 95 1029.7
20181112203800 49 0 0.0 0.0 0.00 0.00 0.00 95 1029.7
20181112202758 49 0 0.0 0.0 0.00 0.00 0.00 95 1029.7
20181112201755 49 0 0.0 0.0 0.00 0.00 0.00 95 1029.7
20181112200751 49 0 0.0 0.0 0.00 0.00 0.00 95 1029.7
20181112195748 49 0 0.0 0.0 0.00 0.00 0.00 95 1029.6
20181112194745 49 0 0.0 0.0 0.00 0.00 0.00 95 1029.4
20181112193742 49 0 0.0 0.0 0.00 0.00 0.00 95 1029.3
20181112192740 49 0 0.0 0.0 0.00 0.00 0.00 95 1029.3
20181112191737 49 0 0.0 0.0 0.00 0.00 0.00 95 1029.3
20181112185731 49 0 0.0 0.0 0.00 0.00 0.00 94 1029.3
20181112184727 49 0 0.0 0.0 0.00 0.00 0.00 94 1029.3
20181112183725 49 0 0.0 0.0 0.00 0.00 0.00 95 1029.3
20181112182722 49 0 0.0 0.0 0.00 0.00 0.00 95 1029.3
20181112181719 49 0 0.0 0.0 0.00 0.00 0.00 91 1028.9
20181112180716 49 0 0.0 0.0 0.00 0.00 0.00 95 1028.9
20181112175713 49 0 0.0 0.0 0.00 0.00 0.00 95 1028.9
20181112174711 49 0 0.0 0.0 0.00 0.00 0.00 95 1028.9
20181112173708 49 0 0.0 0.0 0.00 0.00 0.00 94 1028.9
20181112172704 49 0 0.0 0.0 0.00 0.00 0.00 94 1028.8
20181112171701 49 0 0.0 0.0 0.00 0.00 0.00 94 1028.8
20181112170658 49 0 0.0 0.0 0.00 0.00 0.00 94 1028.9
20181112165656 49 0 0.0 0.0 0.00 0.00 0.00 94 1028.9
20181112164653 48 0 0.0 0.0 0.00 0.00 0.00 94 1028.5
20181112163650 48 0 0.0 0.0 0.00 0.00 0.00 94 1028.5
20181112162647 49 0 0.0 0.0 0.00 0.00 0.00 92 1028.5
20181112161645 49 0 0.0 0.0 0.00 0.00 0.00 91 1028.5
20181112160641 49 0 0.0 0.0 0.00 0.00 0.00 90 1028.3
20181112155638 49 0 0.0 0.0 0.00 0.00 0.00 90 1028.1
20181112154635 49 0 0.0 0.0 0.00 0.00 0.00 92 1028.1
20181112153632 50 0 0.0 0.0 0.00 0.00 0.00 92 1028.1
20181112152630 50 0 0.0 0.0 0.00 0.00 0.00 91 1028.1
20181112151627 50 0 0.0 0.0 0.00 0.00 0.00 91 1028.0
20181112150624 51 0 0.0 0.0 0.00 0.00 0.00 91 1028.0
20181112145621 51 0 0.0 0.0 0.00 0.00 0.00 91 1028.0
20181112144617 52 0 0.0 0.0 0.00 0.00 0.00 89 1027.8
20181112143615 52 0 0.0 0.0 0.00 0.00 0.00 86 1027.9
20181112142612 53 0 0.0 0.0 0.00 0.00 0.00 86 1027.8
20181112141609 53 0 0.0 0.0 0.00 0.00 0.00 86 1027.8
20181112140606 54 0 0.0 0.0 0.00 0.00 0.00 73 1027.7
20181112135604 54 0 0.0 0.0 0.00 0.00 0.00 79 1027.8
20181112134601 55 0 0.0 0.0 0.00 0.00 0.00 80 1027.6
20181112134131 56 0 0.0 0.0 0.00 0.00 0.00 77 1027.7
20181112133558 56 0 0.0 0.0 0.00 0.00 0.00 77 1027.7
20181112132554 57 0 0.0 0.0 0.00 0.00 0.00 75 1027.7
20181112131551 58 0 0.0 0.0 0.00 0.00 0.00 72 1027.6
20181112130548 58 0 0.0 0.0 0.00 0.00 0.00 72 1027.3
20181112125546 59 0 0.0 0.0 0.00 0.00 0.00 72 1027.2
20181112124543 59 0 0.0 0.0 0.00 0.00 0.00 70 1027.2
20181112123540 59 0 0.0 0.0 0.00 0.00 0.00 70 1027.2
20181112122537 60 0 0.0 0.0 0.00 0.00 0.00 69 1027.4
20181112121534 60 0 0.0 0.0 0.00 0.00 0.00 69 1027.6
20181112120531 59 0 0.0 0.0 0.00 0.00 0.00 70 1027.6
20181112115528 59 0 0.0 0.0 0.00 0.00 0.00 69 1027.3
20181112114525 58 0 0.0 0.0 0.00 0.00 0.00 72 1027.6
20181112113522 58 0 0.0 0.0 0.00 0.00 0.00 72 1027.6
20181112112519 57 0 0.0 0.0 0.00 0.00 0.00 76 1027.6
20181112111517 56 0 0.0 0.0 0.00 0.00 0.00 78 1027.6
20181112110514 56 0 0.0 0.0 0.00 0.00 0.00 78 1027.6
20181112105511 54 0 0.0 0.0 0.00 0.00 0.00 83 1027.6
20181112104507 53 0 0.0 0.0 0.00 0.00 0.00 86 1027.7
20181112103505 53 0 0.0 0.0 0.00 0.00 0.00 86 1028.0
20181112102502 52 0 0.0 0.0 0.00 0.00 0.00 89 1028.0
20181112101459 51 0 0.0 0.0 0.00 0.00 0.00 91 1028.0
20181112100456 51 0 0.0 0.0 0.00 0.00 0.00 93 1028.0
20181112095453 50 0 0.0 0.0 0.00 0.00 0.00 93 1028.0
20181112094450 49 0 0.0 0.0 0.00 0.00 0.00 95 1028.0
20181112093448 49 0 0.0 0.0 0.00 0.00 0.00 95 1028.0
20181112092444 49 0 0.0 0.0 0.00 0.00 0.00 95 1028.0
20181112091441 49 0 0.0 0.0 0.00 0.00 0.00 94 1028.2
20181112090438 49 0 0.0 0.0 0.00 0.00 0.00 94 1028.4
20181112084433 48 0 0.0 0.0 0.00 0.00 0.00 94 1028.5
20181112082427 47 0 0.0 0.0 0.00 0.00 0.00 94 1028.5
20181112081424 47 0 0.0 0.0 0.00 0.00 0.00 94 1028.0
20181112080420 46 0 0.0 0.0 0.00 0.00 0.00 94 1028.0
20181112075418 46 0 0.0 0.0 0.00 0.00 0.00 94 1028.0
20181112074415 46 0 0.0 0.0 0.00 0.00 0.00 94 1027.9
20181112073412 46 0 0.0 0.0 0.00 0.00 0.00 94 1027.9
20181112072409 45 0 0.0 0.0 0.00 0.00 0.00 94 1027.7
20181112071406 45 0 0.0 0.0 0.00 0.00 0.00 94 1027.6
20181112070404 45 0 0.0 0.0 0.00 0.00 0.00 94 1027.6
20181112065401 45 0 0.0 0.0 0.00 0.00 0.00 94 1027.6
20181112064357 44 0 0.0 0.0 0.00 0.00 0.00 94 1027.6
20181112063354 44 0 0.0 0.0 0.00 0.00 0.00 94 1027.6
20181112062352 44 0 0.0 0.0 0.00 0.00 0.00 94 1027.6
20181112061349 44 0 0.0 0.0 0.00 0.00 0.00 94 1027.4
20181112060346 43 0 0.0 0.0 0.00 0.00 0.00 94 1027.2
20181112055343 43 0 0.0 0.0 0.00 0.00 0.00 94 1027.2
20181112054340 43 0 0.0 0.0 0.00 0.00 0.00 94 1027.2
20181112053337 43 0 0.0 0.0 0.00 0.00 0.00 94 1027.1
20181112052334 43 0 0.0 0.0 0.00 0.00 0.00 94 1026.9
20181112051331 43 0 0.0 0.0 0.00 0.00 0.00 94 1026.8
20181112050328 43 0 0.0 0.0 0.00 0.00 0.00 94 1026.8
20181112045325 43 0 0.0 0.0 0.00 0.00 0.00 94 1026.8
20181112044322 43 0 0.0 0.0 0.00 0.00 0.00 94 1026.4
20181112043320 43 0 0.0 0.0 0.00 0.00 0.00 94 1026.3
20181112042317 43 0 0.0 0.0 0.00 0.00 0.00 88 1026.2